User: anonymous   Login
Location: Pic du Midi - T1M
(42.9366°N, 0.1426°E)
Time: 22:11:39
(UTC+01:00)
Language:

DX 1 - Orbit

View from above orbital plane
View from above orbital plane
View from above satellite
View from above satellite

Ground track
Ground track

The orbit data is extracted from the following two-line orbital elements,

1 40071U 14037C   21262.53276874  .00000135  00000-0  24683-4 0  9998
2 40071  98.4444 112.2584 0009582 103.7545 256.4739 14.81538991389228
Epoch (UTC): 19 September 2021 12:47:11
Eccentricity: 0.0009582
inclination: 98.4444°
perigee height: 618 km
apogee height: 631 km
right ascension of ascending node: 112.2584°
argument of perigee: 103.7545°
revolutions per day: 14.81538991
mean anomaly at epoch: 256.4739°
orbit number at epoch: 38922

The dashed part of the orbit path shows where the satellite is in the earth's shadow,  

DLR